Wind_Speed
16 15 14 17 21 24 24 24 23 20 18 20 19 18 19 21 23 24 27 23 21 19 21 22 24 25 24 23 22 21 20 20 19 18 18 16 15 15 14 14 13 14 15
19 18 17 16 18 22 25 27 26 27 25 25 25 24 20 21 26 27 30 27 25 23 23 23 24 25 26 25 24 24 23 23 21 21 20 19 18 17 16 16 16 16 16
23 23 22 20 19 21 23 27 30 32 27 25 26 27 29 28 29 28 31 32 29 27 26 25 25 26 27 27 27 27 26 25 25 23 22 21 20 19 18 18 17 17 17
24 22 23 23 22 24 25 27 30 33 33 32 30 30 32 31 33 35 34 37 36 31 30 29 28 29 29 29 29 29 28 27 27 26 25 24 24 22 20 20 19 19 18
28 29 32 28 29 29 30 31 33 33 34 36 34 35 34 34 35 38 39 39 41 39 35 31 30 31 32 32 31 31 31 30 28 28 27 25 25 24 22 22 21 21 21
31 34 32 34 31 33 33 33 35 35 37 36 39 40 40 41 42 40 44 42 42 42 41 39 38 34 34 34 34 34 34 32 31 29 30 27 26 25 25 25 24 23 23
24 25 26 29 31 33 33 35 37 38 39 41 41 44 44 45 46 46 45 48 47 47 45 41 38 38 37 35 36 36 35 35 34 32 31 31 29 28 27 27 27 25 25
28 28 29 29 31 32 33 34 35 36 40 44 44 44 48 49 52 49 48 50 53 50 52 49 45 42 40 42 40 40 38 37 37 33 37 34 33 30 29 28 29 29 28
31 32 32 33 34 36 37 37 37 38 40 43 48 49 49 58 53 52 48 47 52 49 48 53 51 48 46 43 42 43 42 40 41 38 40 38 36 34 32 30 28 31 31
33 33 34 36 37 37 38 39 40 41 42 46 45 47 51 53 64 60 53 53 52 55 52 49 52 49 49 45 42 42 47 44 43 42 40 40 38 38 37 33 32 30 32
36 37 36 37 35 35 36 37 40 43 42 47 39 48 46 53 50 53 62 62 53 54 61 61 56 51 50 47 45 51 51 48 44 43 43 41 43 40 40 37 35 33 31
36 37 34 37 36 37 38 38 38 43 46 48 49 52 49 50 52 58 56 59 61 56 60 58 60 51 57 49 52 51 51 46 48 51 50 46 42 43 42 44 39 36 33
36 38 38 39 37 38 38 39 40 41 43 44 47 49 51 45 55 50 51 53 55 55 53 55 62 61 57 51 46 40 43 51 53 51 48 42 44 43 45 43 43 41 37
38 39 40 39 38 38 39 41 42 44 42 39 38 38 42 45 51 44 50 40 47 63 60 53 54 56 52 51 49 48 44 43 46 51 47 47 49 51 57 51 45 46 40
40 42 42 44 43 44 37 39 42 40 40 42 41 38 38 38 39 44 50 60 58 48 48 59 62 59 54 50 52 44 47 44 45 51 52 56 66 58 49 52 45 47 41
38 39 39 39 43 47 50 47 38 37 33 29 33 35 38 39 39 38 38 42 48 52 55 61 53 51 50 51 52 49 50 51 47 51 57 56 55 50 52 57 47 45 44
32 35 40 44 48 50 47 34 26 25 31 31 27 28 28 32 37 38 39 41 43 46 52 51 52 64 54 55 56 53 53 55 57 54 58 56 52 53 58 53 45 47 44
41 37 37 42 46 49 43 44 58 41 37 28 20 27 26 27 30 33 37 40 42 44 46 52 50 52 53 64 56 51 50 59 61 59 61 58 56 57 52 46 45 47 45
42 39 41 42 44 44 42 37 37 38 33 18 19 26 28 29 30 34 34 39 44 46 42 48 46 52 54 51 56 54 53 56 61 63 63 59 58 51 58 57 47 48 45
44 45 41 39 42 39 39 33 33 35 43 25 19 25 28 30 32 35 38 42 45 45 46 45 45 49 52 55 55 53 54 59 63 62 60 57 54 56 53 54 45 46 46
44 43 46 43 40 36 40 32 32 34 37 35 26 26 27 30 33 36 40 41 45 49 43 44 45 48 50 45 46 55 60 59 56 56 57 55 56 55 53 50 50 51 56
44 42 45 40 37 38 38 38 43 43 38 35 30 29 27 29 32 37 40 44 44 49 38 37 38 37 40 44 44 41 56 53 56 50 47 53 56 53 55 52 48 52 50
46 45 43 35 38 39 42 45 49 46 36 35 34 31 27 29 32 38 39 43 49 37 27 26 30 31 27 32 40 44 53 49 45 43 46 52 52 49 48 47 50 51 44
48 47 47 46 45 46 36 36 38 34 30 29 30 28 27 27 32 38 37 37 47 30 20 20 19 21 19 17 13 11 18 32 39 43 43 45 45 46 45 47 42 42 42
42 41 46 48 44 44 40 38 39 36 34 30 29 24 25 25 30 34 34 34 45 28 19 15 18 18 16 17 21 23 31 31 39 38 39 39 37 39 39 38 41 39 33
32 32 33 36 40 41 40 40 42 41 37 33 29 24 24 25 28 29 28 27 36 23 17 12 13 12 12 13 20 22 22 26 33 37 36 35 33 29 35 37 35 32 30
Wind_Direction
277 282 276 268 263 262 262 263 264 261 266 273 275 275 279 280 279 280 281 280 276 275 275 278 279 280 280 282 284 283 283 282 281 279 278 278 279 279 279 279 276 272 269
263 270 272 277 272 267 265 267 270 271 267 271 272 270 271 274 277 276 278 275 274 274 273 275 276 277 281 281 281 282 282 283 280 279 278 276 275 275 276 275 273 271 271
272 271 270 272 271 269 269 268 269 273 266 266 270 276 274 273 274 274 276 279 274 270 272 273 272 274 273 275 276 277 277 278 278 277 276 276 275 272 269 266 266 268 269
282 278 274 280 272 268 269 270 273 278 279 279 274 275 273 275 275 279 275 276 277 273 270 271 273 274 272 270 271 272 272 272 274 276 275 276 276 274 272 268 266 264 264
274 274 277 279 273 269 266 268 269 269 274 279 277 276 274 274 274 276 276 273 273 274 269 273 273 273 274 273 272 272 271 270 270 272 273 274 274 275 273 269 265 263 262
257 265 269 270 271 270 269 268 270 272 272 269 273 273 271 270 269 269 274 275 276 272 269 269 271 272 271 272 272 271 272 270 268 269 271 270 270 270 269 268 265 262 262
278 276 271 272 274 267 268 270 270 264 265 268 269 269 269 269 267 268 269 272 272 277 275 275 271 271 267 270 271 269 269 270 270 270 268 269 266 267 268 270 267 263 264
277 277 278 276 273 275 279 272 270 263 265 264 266 270 273 276 273 273 273 273 275 273 275 277 275 274 267 264 266 267 265 264 265 271 270 265 263 260 262 265 269 269 265
281 281 280 278 276 276 275 271 270 265 262 259 257 267 266 267 270 270 273 271 277 277 273 273 277 277 273 270 264 263 264 264 265 259 263 262 260 260 254 254 257 268 268
293 289 289 287 284 282 278 277 276 269 267 265 267 256 263 266 269 272 270 269 267 273 272 276 274 275 278 276 272 271 265 261 261 261 259 259 259 260 257 251 252 253 263
293 291 292 290 289 286 280 274 268 265 261 262 275 259 274 263 262 269 271 268 272 271 272 272 277 277 270 270 274 273 265 261 269 265 257 256 254 252 254 256 250 250 255
289 287 286 285 286 282 281 278 271 270 269 267 258 265 259 266 274 268 272 267 270 272 268 271 270 277 271 268 272 270 270 267 271 268 266 247 253 254 251 258 253 252 250
282 282 286 283 282 278 277 276 275 273 272 270 266 261 262 266 259 270 277 269 270 277 264 265 266 277 273 274 270 270 272 269 267 268 263 244 254 255 256 248 255 250 246
275 276 274 276 277 280 283 276 277 274 268 269 272 270 267 263 258 264 255 273 276 266 269 271 269 272 273 272 277 269 264 271 270 263 259 241 248 251 250 252 251 249 245
280 280 278 279 281 281 275 277 275 272 272 273 273 274 274 273 268 265 269 258 266 277 273 268 267 268 273 273 270 275 266 265 274 268 259 244 251 258 246 252 247 247 243
284 287 282 284 280 278 278 273 259 270 274 278 274 276 274 274 274 276 277 275 273 270 276 271 268 274 269 262 268 267 270 271 271 273 265 259 258 252 249 250 247 244 239
295 292 289 285 287 285 281 293 273 273 279 280 280 290 284 282 277 277 282 283 281 275 271 268 270 261 268 262 263 265 266 266 263 267 266 260 256 248 254 246 240 240 238
293 293 290 290 294 300 303 312 299 295 273 267 282 288 292 295 292 285 287 289 288 279 274 269 264 258 259 263 264 261 263 260 259 262 260 260 255 254 256 236 235 238 235
295 291 293 292 295 303 310 304 297 290 272 263 294 294 296 297 297 291 297 300 296 286 278 266 257 260 259 256 257 258 256 259 256 258 256 258 258 255 252 241 228 232 231
289 292 292 295 299 304 305 303 300 301 288 278 277 296 296 296 295 299 298 299 298 290 285 268 253 250 255 257 257 257 255 254 250 252 253 256 254 257 252 236 224 230 228
285 289 290 292 294 292 292 288 293 296 295 297 293 292 296 294 297 299 302 303 301 298 284 266 253 250 245 251 249 255 253 250 250 252 250 251 255 248 242 227 222 228 238
279 279 282 284 285 281 279 287 286 286 293 291 285 287 292 295 297 294 297 308 307 297 276 256 249 250 256 259 257 256 250 251 247 248 249 251 249 245 243 240 232 232 238
284 282 275 275 284 286 285 283 286 289 290 286 286 287 291 291 292 297 302 305 304 288 271 252 237 249 257 262 258 257 253 255 257 259 255 243 241 246 246 235 233 234 237
278 277 280 279 278 280 286 293 292 289 289 297 295 286 287 289 289 294 302 307 310 289 280 257 248 251 231 242 231 229 250 252 253 254 247 243 247 245 236 236 239 237 239
282 279 276 278 291 269 278 285 285 286 284 292 301 286 281 288 286 292 300 312 310 291 284 256 234 227 233 247 253 256 255 249 252 241 238 241 244 243 238 234 233 236 237
295 295 293 286 289 289 284 279 273 275 278 282 290 280 278 280 283 291 304 309 306 283 282 264 237 231 216 238 257 257 252 241 239 240 244 243 241 237 227 226 231 238 241
Height
3161 3162 3161 3161 3162 3162 3163 3163 3162 3162 3162 3162 3163 3164 3163 3160 3160 3161 3162 3164 3163 3163 3163 3165 3166 3166 3166 3167 3167 3166 3166 3166 3167 3166 3166 3166 3165 3165 3165 3165 3164 3164 3163
3156 3157 3157 3157 3157 3157 3157 3157 3157 3157 3158 3157 3156 3157 3158 3156 3154 3154 3155 3157 3159 3159 3158 3158 3160 3161 3162 3162 3162 3162 3162 3163 3162 3162 3162 3162 3162 3162 3162 3162 3161 3161 3160
3152 3151 3150 3152 3153 3152 3152 3151 3150 3150 3151 3151 3151 3150 3151 3151 3148 3149 3148 3149 3152 3152 3153 3152 3153 3155 3156 3156 3157 3157 3157 3158 3158 3158 3158 3159 3158 3157 3157 3156 3156 3156 3156
3145 3146 3145 3146 3146 3145 3144 3144 3144 3143 3143 3143 3143 3144 3143 3143 3142 3138 3141 3142 3144 3146 3146 3147 3147 3148 3149 3150 3151 3151 3151 3152 3152 3153 3153 3153 3154 3154 3154 3153 3152 3152 3152
3141 3140 3140 3140 3140 3139 3138 3136 3136 3136 3134 3134 3135 3134 3134 3135 3134 3130 3130 3132 3134 3137 3139 3140 3140 3142 3143 3143 3144 3145 3145 3146 3146 3147 3148 3148 3149 3149 3149 3149 3149 3148 3148
3137 3136 3134 3133 3133 3131 3131 3130 3129 3127 3126 3127 3126 3125 3126 3125 3125 3125 3120 3123 3124 3125 3127 3129 3131 3133 3135 3137 3137 3138 3139 3140 3139 3140 3141 3142 3142 3143 3143 3144 3144 3144 3143
3130 3129 3128 3127 3126 3124 3123 3122 3120 3120 3119 3119 3118 3116 3115 3113 3113 3113 3115 3111 3113 3114 3116 3120 3121 3123 3125 3127 3129 3130 3131 3133 3133 3133 3134 3135 3135 3137 3138 3138 3138 3138 3138
3124 3122 3120 3119 3118 3116 3115 3114 3113 3110 3109 3109 3105 3106 3102 3103 3100 3103 3103 3103 3101 3105 3103 3106 3110 3113 3115 3117 3119 3120 3121 3124 3125 3125 3128 3129 3128 3128 3130 3131 3133 3133 3133
3116 3113 3112 3110 3108 3107 3105 3103 3102 3100 3098 3098 3098 3096 3092 3087 3091 3090 3091 3093 3090 3089 3092 3093 3097 3100 3103 3105 3109 3111 3111 3113 3116 3116 3119 3120 3121 3121 3121 3122 3124 3127 3127
3108 3106 3103 3100 3098 3096 3094 3092 3091 3089 3088 3083 3083 3083 3082 3079 3078 3075 3076 3079 3081 3077 3079 3079 3084 3086 3091 3095 3098 3099 3100 3102 3103 3106 3109 3111 3112 3113 3114 3114 3115 3116 3120
3093 3091 3089 3086 3084 3082 3080 3077 3076 3075 3073 3072 3071 3066 3068 3067 3064 3064 3060 3065 3068 3065 3067 3066 3069 3073 3075 3081 3081 3085 3084 3090 3089 3093 3097 3101 3101 3102 3104 3106 3106 3108 3110
3081 3079 3077 3074 3072 3069 3067 3065 3063 3061 3060 3057 3056 3055 3055 3053 3050 3052 3050 3048 3051 3054 3055 3054 3052 3058 3062 3067 3072 3072 3070 3074 3078 3080 3083 3088 3092 3093 3095 3097 3099 3100 3102
3071 3068 3067 3063 3062 3060 3057 3054 3052 3050 3047 3044 3043 3042 3041 3041 3043 3039 3038 3033 3033 3037 3040 3039 3037 3042 3047 3052 3056 3058 3062 3064 3065 3067 3070 3076 3080 3082 3084 3086 3089 3091 3092
3058 3056 3054 3051 3048 3047 3046 3044 3042 3039 3037 3033 3031 3029 3028 3027 3028 3025 3028 3021 3021 3021 3022 3026 3028 3027 3033 3037 3041 3044 3050 3053 3052 3053 3057 3062 3066 3068 3072 3076 3078 3081 3084
3047 3046 3044 3043 3040 3037 3033 3030 3027 3025 3024 3023 3022 3019 3017 3016 3016 3015 3014 3014 3012 3008 3006 3011 3015 3019 3021 3025 3026 3029 3035 3040 3041 3041 3044 3048 3049 3054 3059 3064 3068 3074 3076
3038 3035 3033 3031 3028 3026 3021 3016 3009 3010 3008 3008 3009 3009 3007 3006 3005 3004 3002 3001 3000 2998 2996 2998 3000 3005 3009 3009 3012 3017 3018 3025 3027 3029 3031 3034 3039 3042 3048 3052 3059 3064 3066
3028 3025 3022 3019 3016 3014 3009 3003 2997 2998 2999 2999 2998 2998 2996 2994 2993 2992 2991 2989 2988 2988 2984 2987 2987 2991 2993 2996 3001 3003 3006 3011 3013 3018 3020 3023 3026 3031 3036 3041 3048 3052 3056
3018 3016 3013 3009 3005 3001 2999 2993 2989 2992 2988 2987 2988 2988 2986 2984 2982 2980 2978 2977 2976 2975 2972 2971 2973 2972 2976 2982 2986 2993 2994 2996 3000 3004 3008 3011 3015 3019 3025 3029 3036 3041 3045
3009 3005 3003 2999 2996 2992 2990 2989 2982 2978 2975 2975 2979 2979 2977 2974 2972 2970 2966 2964 2961 2960 2958 2956 2957 2958 2959 2965 2970 2977 2982 2985 2988 2992 2996 3000 3005 3011 3015 3016 3023 3029 3034
2999 2996 2993 2989 2987 2984 2981 2979 2976 2971 2970 2969 2968 2968 2967 2963 2960 2959 2955 2950 2949 2946 2942 2940 2941 2943 2944 2949 2955 2962 2966 2972 2977 2981 2986 2991 2996 3001 3003 3006 3013 3020 3023
2989 2986 2982 2979 2977 2975 2973 2970 2968 2966 2964 2961 2960 2959 2957 2953 2949 2946 2942 2939 2936 2930 2925 2924 2925 2927 2928 2934 2939 2947 2954 2961 2965 2970 2975 2980 2986 2989 2992 2995 3001 3007 3011
2978 2975 2971 2969 2967 2964 2962 2960 2959 2957 2953 2954 2950 2948 2945 2942 2939 2937 2934 2929 2922 2917 2912 2910 2911 2913 2915 2922 2929 2935 2941 2948 2955 2961 2967 2972 2976 2979 2981 2985 2991 2996 3001
2968 2965 2960 2958 2958 2956 2953 2952 2949 2946 2943 2940 2937 2935 2932 2933 2930 2926 2922 2917 2912 2907 2903 2902 2903 2905 2908 2911 2919 2926 2932 2938 2944 2950 2955 2960 2965 2968 2973 2979 2983 2989 2998
2953 2951 2949 2948 2947 2945 2942 2938 2935 2933 2931 2929 2926 2924 2924 2924 2921 2917 2913 2907 2904 2899 2895 2894 2895 2897 2899 2904 2909 2916 2922 2928 2934 2939 2946 2951 2956 2961 2966 2971 2978 2987 2992
2939 2939 2938 2936 2932 2931 2931 2928 2925 2922 2919 2918 2916 2915 2916 2914 2912 2909 2905 2899 2897 2891 2890 2888 2888 2890 2893 2897 2903 2909 2915 2921 2926 2931 2936 2944 2950 2955 2963 2969 2976 2980 2984
2930 2928 2927 2926 2923 2919 2917 2915 2914 2911 2910 2910 2909 2907 2907 2905 2903 2901 2897 2892 2891 2887 2885 2883 2885 2886 2888 2892 2897 2902 2908 2914 2920 2925 2931 2939 2945 2953 2958 2964 2970 2973 2977